Terminal Aerodrome Forecast
Issued by NWS

Home | Current Version | Previous Version | Text Only | Print | Product List | Glossary On
Versions: 1 2 3 4 5 6 7 8 9 10 11 12 13 14 15 16 17 18 19
402
FTUS43 KDTX 171120
TAFMBS
TAF
KMBS 171120Z 1712/1812 23008KT P6SM BKN040
     FM171400 23012KT P6SM BKN030
     FM171800 24016G24KT P6SM SCT035 BKN150
     FM180000 24016G26KT P6SM SCT150
     FM180700 23014KT P6SM SCT150=

USA.gov is the U.S. government's official web portal to all federal, state and local government web resources and services.